Location: Chandolas
(44.4033°N, 4.2533°E)
Time: 17:53:01
(UTC+00:00)

Cosmos 2151 - Pass Details

Date: 15 November 2019
Orbit: 580 x 602 km, 82.5° (Epoch: 15 December)

Event Time Altitude Azimuth Distance (km) Brightness Sun altitude
Rises 04:43:27 0° 176° (S) 2,835 6.6 -20.5°
Reaches altitude 10° 04:45:40 10° 173° (S) 1,939 5.8 -20.1°
Maximum altitude 04:49:52 57° 94° (E) 714 3.6 -19.4°
Drops below altitude 10° 04:54:07 10° 17° (NNE) 1,956 5.7 -18.6°
Sets 04:56:21 0° 13° (NNE) 2,863 6.5 -18.2°
